Weather History for Ames, IA

Change the Weather History Date:

Saturday, March 9, 2013

  Actual Average Record
Temperature  
Mean Temperature 37 °F 34 °F  
Max Temperature 38 °F 44 °F 52 °F (2006)
Min Temperature 35 °F 24 °F 1 °F (2003)
Degree Days  
Heating Degree Days 28 31  
Month to date heating degree days 346 299  
Since 1 July heating degree days 5353 5584  
Cooling Degree Days 0 0  
Month to date cooling degree days 0 0  
Year to date cooling degree days 0 0  
Moisture  
Dew Point 36 °F    
Average Humidity 96    
Maximum Humidity 100    
Minimum Humidity 92    
Precipitation  
Precipitation 0.64 in 0.06 in 0.64 in (2013)
Month to date precipitation 0.84 0.48  
Sea Level Pressure  
Sea Level Pressure 29.83 in    
Wind  
Wind Speed 9 mph (SE)    
Max Wind Speed 17 mph    
Max Gust Speed 25 mph    
Visibility 3 miles    
Events Fog , Rain    
T = Trace of Precipitation, MM = Missing Value Source: NWS Daily Summary

Daily Weather History Graph

Daily Weather History Graph

Search for Another Location

Airport:

Trip Planner

Search our weather history database for the weather conditions in past years. The results will help you decide how hot, cold, wet, or windy it might be!

Date:

Astronomy

Mar. 09, 2013 Rise Set
Actual Time 6:35 AM CST 6:14 PM CST
Civil Twilight 6:08 AM CST 6:42 PM CST
Nautical Twilight 5:35 AM CST 7:14 PM CST
Astronomical Twilight 5:03 AM CST 7:47 PM CST
Moon 5:02 AM CST (3/9) 4:15 PM CST (3/9)
Length of Visible Light 12h 34m
Length of Day
11h 38m
Waning Crescent, 5% of the Moon is Illuminated
Mar 9
Waning Crescent
Mar 11
New
Mar 19
First Quarter
Mar 27
Full
Apr 2
Last Quarter

Hourly Weather History & Observations

Time (CST) Temp. Windchill Dew Point Humidity Pressure Visibility Wind Dir Wind Speed Gust Speed Precip Events Conditions
12:53 AM 35.1 °F 27.9 °F 35.1 °F 100% 30.04 in 4.0 mi SE 9.2 mph - 0.01 in Rain Light Rain
1:08 AM 35.6 °F 29.2 °F 35.6 °F 100% 30.03 in 2.5 mi SE 8.1 mph - 0.05 in Rain Light Rain
1:16 AM 35.6 °F 29.2 °F 35.6 °F 100% 30.02 in 3.0 mi SE 8.1 mph - 0.07 in Rain Rain
1:53 AM 35.1 °F 28.6 °F 35.1 °F 100% 30.02 in 5.0 mi ESE 8.1 mph - 0.07 in   Overcast
2:53 AM 36.0 °F 32.1 °F 34.0 °F 93% 30.02 in 5.0 mi East 4.6 mph - 0.02 in   Overcast
3:23 AM 35.6 °F 29.2 °F 33.8 °F 93% 29.97 in 2.0 mi ESE 8.1 mph - 0.05 in Rain Light Rain
3:39 AM 35.6 °F 28.0 °F 33.8 °F 93% 29.97 in 1.8 mi SE 10.4 mph - 0.12 in Rain Heavy Rain
3:46 AM 35.6 °F 29.2 °F 33.8 °F 93% 29.96 in 1.8 mi ESE 8.1 mph - 0.14 in Rain Rain
3:53 AM 35.1 °F 28.6 °F 34.0 °F 96% 29.98 in 2.5 mi ESE 8.1 mph - 0.15 in Rain Light Rain
4:00 AM 35.6 °F 29.9 °F 33.8 °F 93% 29.96 in 2.0 mi ESE 6.9 mph - 0.03 in Rain Rain
4:06 AM 35.6 °F 29.2 °F 33.8 °F 93% 29.95 in 2.0 mi SE 8.1 mph - 0.04 in Rain Light Rain
4:17 AM 35.6 °F 28.6 °F 33.8 °F 93% 29.95 in 1.5 mi SE 9.2 mph - 0.11 in Rain Rain
4:21 AM 35.6 °F 27.1 °F 33.8 °F 93% 29.95 in 2.0 mi SE 12.7 mph - 0.11 in Rain Light Rain
4:31 AM 35.6 °F 28.0 °F 33.8 °F 93% 29.95 in 3.0 mi SE 10.4 mph - 0.11 in   Overcast
4:53 AM 35.1 °F 27.4 °F 34.0 °F 96% 29.95 in 3.0 mi SE 10.4 mph - 0.11 in   Overcast
4:59 AM 35.6 °F 27.1 °F 33.8 °F 93% 29.93 in 3.0 mi SE 12.7 mph - N/A   Overcast
5:14 AM 35.6 °F 27.5 °F 33.8 °F 93% 29.92 in 2.5 mi SE 11.5 mph - N/A   Overcast
5:22 AM 35.6 °F 26.6 °F 33.8 °F 93% 29.92 in 3.0 mi SE 13.8 mph - N/A   Overcast
5:53 AM 35.1 °F 26.9 °F 34.0 °F 96% 29.93 in 3.0 mi SE 11.5 mph - N/A   Overcast
6:53 AM 36.0 °F 27.5 °F 35.1 °F 97% 29.92 in 4.0 mi SE 12.7 mph - N/A   Overcast
7:53 AM 36.0 °F 28.0 °F 36.0 °F 100% 29.90 in 3.0 mi SE 11.5 mph - N/A   Overcast
8:19 AM 35.6 °F 26.6 °F 35.6 °F 100% 29.87 in 2.5 mi SE 13.8 mph - N/A   Overcast
8:53 AM 36.0 °F 26.7 °F 36.0 °F 100% 29.88 in 2.5 mi SSE 15.0 mph - N/A   Overcast
9:53 AM 36.0 °F 27.1 °F 36.0 °F 100% 29.84 in 3.0 mi SE 13.8 mph - N/A   Overcast
10:53 AM 37.0 °F 29.3 °F 36.0 °F 96% 29.84 in 2.5 mi SSE 11.5 mph - N/A   Overcast
11:06 AM 37.4 °F 29.8 °F 35.6 °F 93% 29.82 in 3.0 mi SSE 11.5 mph - N/A   Overcast
11:13 AM 37.4 °F 29.8 °F 35.6 °F 93% 29.81 in 2.5 mi SE 11.5 mph - 0.00 in   Overcast
11:48 AM 37.4 °F 30.8 °F 37.4 °F 100% 29.80 in 1.5 mi SE 9.2 mph - 0.08 in Rain Rain
11:53 AM 37.0 °F 29.3 °F 37.0 °F 100% 29.81 in 1.2 mi SSE 11.5 mph - 0.13 in Rain Rain
12:12 PM 37.4 °F 29.8 °F 37.4 °F 100% 29.78 in 1.8 mi SE 11.5 mph - 0.04 in Rain Light Rain
12:44 PM 37.4 °F 29.8 °F 37.4 °F 100% 29.75 in 2.0 mi SE 11.5 mph - 0.10 in Rain Light Rain
12:53 PM 37.0 °F 28.5 °F 37.0 °F 100% 29.76 in 3.0 mi SSE 13.8 mph - 0.11 in Rain Light Rain
1:53 PM 37.0 °F 28.1 °F 37.0 °F 100% 29.73 in 5.0 mi SSE 15.0 mph - 0.03 in   Overcast
2:38 PM 37.4 °F 29.8 °F 37.4 °F 100% 29.69 in 4.0 mi SSE 11.5 mph - N/A   Overcast
2:53 PM 37.9 °F 30.9 °F 37.9 °F 100% 29.72 in 4.0 mi SSE 10.4 mph - N/A   Overcast
3:46 PM 37.4 °F 32.1 °F 37.4 °F 100% 29.70 in 2.5 mi SE 6.9 mph - 0.00 in   Overcast
3:53 PM 37.9 °F 33.5 °F 37.9 °F 100% 29.73 in 2.5 mi SE 5.8 mph - 0.00 in Rain Light Rain
4:00 PM 37.4 °F - 37.4 °F 100% 29.72 in 3.0 mi Calm Calm - 0.00 in Rain Light Rain
4:11 PM 37.4 °F 32.1 °F 37.4 °F 100% 29.72 in 2.5 mi SSE 6.9 mph - 0.00 in   Overcast
4:53 PM 37.9 °F 32.1 °F 37.0 °F 97% 29.73 in 2.0 mi SE 8.1 mph - 0.00 in   Overcast
5:12 PM 37.4 °F 32.8 °F 37.4 °F 100% 29.71 in 1.5 mi ESE 5.8 mph - N/A   Overcast
5:53 PM 37.0 °F 31.6 °F 37.0 °F 100% 29.72 in 1.5 mi ESE 6.9 mph - N/A   Overcast
6:29 PM 37.4 °F 33.8 °F 37.4 °F 100% 29.70 in 2.5 mi ESE 4.6 mph - N/A   Overcast
6:53 PM 37.0 °F 31.6 °F 36.0 °F 96% 29.71 in 2.0 mi ESE 6.9 mph - N/A   Overcast
7:53 PM 37.9 °F 35.5 °F 37.9 °F 100% 29.68 in 3.0 mi East 3.5 mph - N/A   Overcast
8:26 PM 37.4 °F 33.8 °F 37.4 °F 100% 29.70 in 2.5 mi North 4.6 mph - N/A   Overcast
8:53 PM 37.0 °F 31.6 °F 37.0 °F 100% 29.72 in 2.0 mi North 6.9 mph - N/A   Overcast
9:53 PM 37.0 °F 33.3 °F 36.0 °F 96% 29.73 in 3.0 mi NNE 4.6 mph - N/A   Overcast
10:08 PM 35.6 °F 31.7 °F 35.6 °F 100% 29.72 in 2.5 mi North 4.6 mph - N/A   Overcast
10:53 PM 36.0 °F - 36.0 °F 100% 29.72 in 1.8 mi Calm Calm - N/A   Overcast
11:16 PM 35.6 °F - 35.6 °F 100% 29.69 in 0.2 mi Calm Calm - N/A Fog Fog
11:53 PM 36.0 °F 33.3 °F 36.0 °F 100% 29.68 in 0.2 mi SE 3.5 mph - N/A Fog Fog